Weather History for KNQX - June, 2013

Change the Weather History Date:

Thursday, June 27, 2013

  Actual Average (KEYW) Record (KEYW)
Temperature  
Mean Temperature 84 °F 84 °F  
Max Temperature 88 °F 89 °F 94 °F (1883)
Min Temperature 81 °F 79 °F 69 °F (1942)
Degree Days  
Heating Degree Days 0 0  
Month to date heating degree days 0  
Since 1 June heating degree days 0  
Since 1 July heating degree days 73  
Cooling Degree Days 19 19  
Month to date cooling degree days 493  
Year to date cooling degree days 1923  
Since 1 June cooling degree days 493  
Growing Degree Days 34 (Base 50)    
Moisture  
Dew Point 75 °F    
Average Humidity 75    
Maximum Humidity 85    
Minimum Humidity 63    
Precipitation  
Precipitation 0.00 in 0.13 in 3.30 in (1961)
Month to date precipitation 3.70  
Year to date precipitation 14.33  
Snow  
Snow 0.00 in - - ()
Month to date snowfall  
Since 1 June snowfall  
Since 1 July snowfall  
Snow Depth -    
Sea Level Pressure  
Sea Level Pressure 30.00 in    
Wind  
Wind Speed 7 mph (ESE)    
Max Wind Speed 12 mph    
Max Gust Speed -    
Visibility 10 miles    
Events Thunderstorm    
T = Trace of Precipitation, MM = Missing Value Source: NWS Daily Summary

Daily Weather History Graph

Daily Weather History Graph

Search for Another Location

Airport or City:

Trip Planner

Search our weather history database for the weather conditions in past years. The results will help you decide how hot, cold, wet, or windy it might be!

Date:

Astronomy

Jun. 27, 2013 Rise Set
Actual Time 6:40 AM EDT 8:19 PM EDT
Civil Twilight 6:14 AM EDT 8:45 PM EDT
Nautical Twilight 5:43 AM EDT 9:15 PM EDT
Astronomical Twilight 5:11 AM EDT 9:48 PM EDT
Moon 11:51 PM EDT (6/27) 11:08 AM EDT (6/27)
Length of Visible Light 14h 30m
Length of Day
13h 39m
Waning Gibbous, 76% of the Moon is Illuminated
Jun 27
Waning Gibbous
Jun 30
Last Quarter
Jul 8
New
Jul 15
First Quarter
Jul 22
Full

Hourly Weather History & Observations

Time (EDT) Temp. Heat Index Dew Point Humidity Pressure Visibility Wind Dir Wind Speed Gust Speed Precip Events Conditions
12:53 AM 82.0 °F 87.9 °F 73.9 °F 76% 30.02 in 10.0 mi SE 6.9 mph - N/A   Clear
1:53 AM 82.0 °F 87.9 °F 73.9 °F 76% 30.00 in 10.0 mi SE 10.4 mph - N/A   Clear
2:53 AM 82.0 °F 88.6 °F 75.0 °F 79% 29.99 in 10.0 mi SE 6.9 mph - N/A   Partly Cloudy
3:53 AM 82.0 °F 89.4 °F 75.9 °F 82% 29.99 in 10.0 mi SE 6.9 mph - N/A   Scattered Clouds
4:53 AM 82.0 °F 88.6 °F 75.0 °F 79% 29.98 in 10.0 mi SE 8.1 mph - N/A   Partly Cloudy
5:53 AM 82.0 °F 88.6 °F 75.0 °F 79% 29.98 in 9.0 mi SE 8.1 mph - N/A   Partly Cloudy
6:53 AM 81.0 °F 87.3 °F 75.9 °F 85% 30.00 in 10.0 mi ESE 5.8 mph - N/A   Mostly Cloudy
7:53 AM 82.9 °F 90.8 °F 75.9 °F 79% 30.01 in 10.0 mi SE 5.8 mph - N/A   Mostly Cloudy
8:28 AM 82.4 °F 88.2 °F 73.4 °F 74% 30.03 in 9.0 mi ESE 5.8 mph - N/A Thunderstorm Thunderstorm
8:43 AM 82.4 °F 89.5 °F 75.2 °F 79% 30.03 in 9.0 mi ESE 6.9 mph - N/A   Mostly Cloudy
8:53 AM 82.9 °F 91.8 °F 77.0 °F 82% 30.03 in 10.0 mi SE 5.8 mph - N/A   Mostly Cloudy
9:53 AM 84.0 °F 93.7 °F 77.0 °F 79% 30.03 in 10.0 mi SE 5.8 mph - N/A   Mostly Cloudy
10:53 AM 86.0 °F 95.1 °F 75.0 °F 70% 30.03 in 10.0 mi SE 9.2 mph - N/A   Mostly Cloudy
11:53 AM 86.0 °F 92.2 °F 72.0 °F 63% 30.04 in 10.0 mi ESE 6.9 mph - N/A   Mostly Cloudy
12:53 PM 87.1 °F 98.8 °F 77.0 °F 72% 30.03 in 10.0 mi South 5.8 mph - N/A   Mostly Cloudy
1:23 PM 87.8 °F 97.6 °F 75.2 °F 66% 30.03 in 10.0 mi South 5.8 mph - N/A Thunderstorm Thunderstorm
1:53 PM 84.9 °F 93.3 °F 75.0 °F 72% 30.04 in 10.0 mi North 11.5 mph - N/A Thunderstorm Thunderstorm
2:27 PM 82.4 °F 88.2 °F 73.4 °F 74% 30.02 in 10.0 mi NE 6.9 mph - N/A   Mostly Cloudy
2:53 PM 84.9 °F 90.7 °F 72.0 °F 65% 30.01 in 10.0 mi NNE 8.1 mph - N/A   Mostly Cloudy
3:53 PM 87.1 °F 94.5 °F 73.0 °F 63% 30.00 in 10.0 mi East 9.2 mph - N/A   Mostly Cloudy
4:53 PM 87.1 °F 96.3 °F 75.0 °F 67% 29.98 in 10.0 mi East 5.8 mph - N/A   Mostly Cloudy
5:53 PM 86.0 °F 95.1 °F 75.0 °F 70% 29.97 in 10.0 mi SE 9.2 mph - N/A   Mostly Cloudy
6:53 PM 84.0 °F 91.9 °F 75.0 °F 74% 29.97 in 10.0 mi East 3.5 mph - N/A   Mostly Cloudy
7:53 PM 84.0 °F 91.9 °F 75.0 °F 74% 29.98 in 10.0 mi ENE 5.8 mph - N/A   Mostly Cloudy
8:53 PM 82.0 °F 89.4 °F 75.9 °F 82% 29.97 in 10.0 mi ENE 5.8 mph - N/A   Mostly Cloudy
9:53 PM 82.0 °F 89.4 °F 75.9 °F 82% 29.97 in 10.0 mi East 8.1 mph - N/A   Mostly Cloudy
10:53 PM 82.0 °F 88.6 °F 75.0 °F 79% 29.99 in 10.0 mi SE 8.1 mph - N/A   Clear
11:53 PM 82.0 °F 89.4 °F 75.9 °F 82% 29.99 in 10.0 mi ESE 8.1 mph - N/A   Partly Cloudy